STARLINK-34690

Last updated on Tue Aug 19 2025 00:02:06 GMT+0000 (Coordinated Universal Time)

1 64863U 25152X 25230.58335648 -.01816107 00000+0 -43561-1 0 9991 2 64863 97.6039 84.2383 0001644 74.7277 39.5656 15.44444040 5425

Satellite not in orbit

STARLINK-34690